Home   Weather   Coquitlam   Past weeks

Flag for Canada Past Weather in Coquitlam, British Columbia, Canada — Yesterday and Last 2 Weeks

Now
62 °F

Cool.


Feels Like: 62 °F
Forecast: 51 / 80 °F
Wind: 1 mph from Southeast

Location: P. Meadows Coastal Station

Current Time: Jun 23, 2017 at 8:42:35 am

Latest Report: Jun 23, 2017 at 8:00 am


Visibility: N/A

Pressure: 30.26 "Hg

Humidity: 64%

Dew Point: 50 °F

Location of CoquitlamLocation

Past Weather in Coquitlam — Graph

°F

Coquitlam Temperature Yesterday

Maximum temperature yesterday: 74 °F (at 5:00 pm)
Minimum temperature yesterday: 48 °F (at 5:00 am)
Average temperature yesterday: 62 °F

High & Low Weather Summary for the Past Weeks

 TemperatureHumidityPressure
High75 °F (Jun 20, 4:00 pm)99% (Jun 11, 4:00 am)30.33 "Hg (Jun 11, 4:00 am)
Low48 °F (Jun 22, 5:00 am)33% (Jun 22, 8:00 pm)29.60 "Hg (Jun 8, 7:00 am)
Average59 °F73%30.04 "Hg
* Reported Jun 8 6:00 am — Jun 23 6:00 am, Coquitlam. Weather by CustomWeather, © 2017

Note: Actual official high and low records may vary slightly from our data, if they occured in-between our weather recording intervals... More about our weather records

Advertising

Coquitlam Weather History for the Previous 24 Hours

Scroll right to see more
 ConditionsComfort  
Time TempWeatherWind HumidityBarometerVisibility
6:00 am
Fri, Jun 23
51 °FCool.No wind87%30.26 "HgN/A
5:00 am51 °FCool.1 mph92%30.24 "HgN/A
4:00 am51 °FCool.No wind88%30.24 "HgN/A
3:00 am54 °FCool.1 mph86%30.24 "HgN/A
2:00 am55 °FCool.2 mph81%30.23 "HgN/A
1:00 am57 °FCool.1 mph76%30.24 "HgN/A
12:00 am59 °FCool.1 mph75%30.23 "HgN/A
11:00 pm
Thu, Jun 22
60 °FCool.2 mph73%30.22 "HgN/A
10:00 pm62 °FCool.1 mph61%30.21 "HgN/A
9:00 pm68 °FMild.3 mph42%30.21 "HgN/A
8:00 pm71 °FMild.8 mph33%30.22 "HgN/A
7:00 pm73 °FMild.7 mph38%30.22 "HgN/A
6:00 pm74 °FMild.7 mph36%30.22 "HgN/A
5:00 pm74 °FMild.9 mph36%30.24 "HgN/A
4:00 pm73 °FMild.9 mph41%30.26 "HgN/A
3:00 pm73 °FMild.9 mph44%30.27 "HgN/A
2:00 pm71 °FMild.7 mph44%30.28 "HgN/A
1:00 pm70 °FMild.5 mph45%30.30 "HgN/A
12:00 pm69 °FMild.3 mph45%30.31 "HgN/A
11:00 am66 °FMild.3 mph49%30.32 "HgN/A
10:00 am62 °FRefreshingly cool.2 mph54%30.33 "HgN/A
9:00 am60 °FRefreshingly cool.2 mph59%30.33 "HgN/A
8:00 am57 °FCool.1 mph68%30.33 "HgN/A
Weather by CustomWeather, © 2017

See weather overviewHow to use our weather pages